Simultaneous Nadir Overpasses (SNOs) Predictions

Prediction of SNOs between NOAA-19 and TERRA Satellite Orbit:

Table of predicted SNOs for the next 14.0 days since TLE Epoch: 8/23/2014
Index Date (NOAA-19) Time (NOAA-19) Lat,Lon (NOAA-19) SZA (NOAA-19 ) Date (TERRA) Time (TERRA) Lat,Lon (TERRA) SZA (TERRA ) Distance(km) Time Diff (sec)
1 08/24/2014 05:49:16 70.84, 94.53 59.63 08/24/2014 05:49:34 70.86, 94.61 59.65 3.43 18
2 08/24/2014 06:40:17 -70.71, -98.00 120.49 08/24/2014 06:39:05 -70.69, -98.02 120.52 2.41 72
3 08/26/2014 10:33:04 70.87, 23.57 60.42 08/26/2014 10:33:52 70.89, 23.58 60.44 2.26 48
4 08/26/2014 11:24:05 -70.76,-169.01 119.69 08/26/2014 11:23:22 -70.78,-168.96 119.67 2.40 43
5 08/28/2014 15:16:56 71.11, -47.77 61.43 08/28/2014 15:18:08 71.02, -47.29 61.34 19.91 72
6 08/28/2014 16:07:53 -70.82, 119.97 118.85 08/28/2014 16:07:40 -70.80, 120.00 118.87 2.32 13
7 08/30/2014 20:51:40 -70.84, 49.02 118.05 08/30/2014 20:51:58 -70.82, 48.95 118.07 3.18 18
8 08/30/2014 21:42:38 70.66,-143.44 61.80 08/30/2014 21:41:25 70.72,-143.56 61.84 7.38 73
9 09/02/2014 01:35:28 -70.92, -22.03 117.18 09/02/2014 01:36:15 -70.89, -22.02 117.20 3.07 47
10 09/02/2014 02:26:27 70.77, 145.47 62.69 09/02/2014 02:25:42 70.78, 145.46 62.70 1.57 45
11 09/04/2014 06:19:18 -71.10, -93.28 116.18 09/04/2014 06:20:30 -71.06, -92.84 116.22 16.78 72
12 09/04/2014 07:10:15 70.83, 74.45 63.56 09/04/2014 07:09:59 70.84, 74.47 63.57 1.57 16
